Location: Quedlinburg
(51.7921°N, 11.1414°E)
Time: 12:58:00
(UTC+02:00)

RS-15 - Pass Details

Date: 13 March 2026
Orbit: 1893 x 2152 km, 64.8° (Epoch: 22 April)

Event Time Altitude Azimuth Distance (km) Brightness Sun altitude
Rises 05:10:11 0° 317° (NW) 5,382 10.1 -13.8°
Reaches altitude 10° 05:13:25 10° 317° (NW) 4,410 9.6 -13.3°
Maximum altitude 05:24:50 78° 234° (SW) 2,085 8.1 -11.6°
Drops below altitude 10° 05:36:47 10° 151° (SSE) 4,599 10.3 -9.7°
Sets 05:40:14 0° 150° (SSE) 5,621 10.8 -9.2°
